Printer-friendly version

IAU Minor Planet Center

Minor Planet Center

MPEC 2007-L33 : 2007 LL

The following Minor Planet Electronic Circular may be linked-to from your own Web pages, but must not otherwise be redistributed electronically.


Read MPEC 2007-L32 Read MPEC 2007-L34


M.P.E.C. 2007-L33                                Issued 2007 June 8, 21:06 UT

     The Minor Planet Electronic Circulars contain information on unusual
         minor planets and routine data on comets.  They are published
   on behalf of Commission 20 of the International Astronomical Union by the
          Minor Planet Center, Smithsonian Astrophysical Observatory,
                          Cambridge, MA 02138, U.S.A.

             Prepared using the Tamkin Foundation Computer Network

                              MPC@CFA.HARVARD.EDU
          URL http://www.cfa.harvard.edu/iau/mpc.html  ISSN 1523-6714

                                    2007 LL

Observations:
     K07L00L* C2007 06 08.22000 13 48 03.60 -06 25 16.0          17.7 V EL033703
     K07L00L  C2007 06 08.22647 13 48 04.24 -06 24 59.0          17.8 V EL033703
     K07L00L  C2007 06 08.23285 13 48 04.86 -06 24 43.0          17.7 V EL033703
     K07L00L  C2007 06 08.23926 13 48 05.43 -06 24 26.6          17.8 V EL033703
     K07L00L  C2007 06 08.24573 13 48 06.12 -06 24 09.6          17.6 V EL033703
     K07L00L  C2007 06 08.25270 13 48 06.84 -06 23 52.0          17.7 V EL033703
     K07L00L  C2007 06 08.25965 13 48 07.48 -06 23 33.7          17.5 V EL033703
     K07L00L  C2007 06 08.26663 13 48 08.20 -06 23 16.2          17.9 V EL033703
     K07L00L  C2007 06 08.83316 13 49 15.44 -05 59 46.2          17.5 R EL033461
     K07L00L  C2007 06 08.83778 13 49 15.90 -05 59 34.8                 EL033461
     K07L00L  C2007 06 08.84245 13 49 16.37 -05 59 23.2                 EL033461
     K07L00L  C2007 06 08.86501 13 49 18.88 -05 58 27.5                 EL033246
     K07L00L  C2007 06 08.86561 13 49 18.95 -05 58 26.3                 EL033246
     K07L00L  C2007 06 08.86617 13 49 19.00 -05 58 24.9                 EL033246
     K07L00L  C2007 06 08.86681 13 49 19.07 -05 58 23.3                 EL033246
     K07L00L  C2007 06 08.86744 13 49 19.11 -05 58 21.5                 EL033246
     K07L00L  C2007 06 08.86806 13 49 19.20 -05 58 20.0                 EL033246
     K07L00L  C2007 06 08.86877 13 49 19.24 -05 58 18.4                 EL033246

Observer details:
246 Klet Observatory-KLENOT.  Observers J. Ticha, M. Tichy.  Measurer M. Tichy.
    1.06-m KLENOT Telescope + CCD.
461 University of Szeged, Piszkesteto Stn. (Konkoly).  Observers K. Sarneczky,
    M. Kozak, O. Haja.  Measurer K. Sarneczky.  0.60-m Schmidt + CCD.
703 Catalina Sky Survey.  Observer R. E. Hill.  Measurers E. C. Beshore,
    A. Boattini, G. J. Garradd, A. R. Gibbs, A. D. Grauer, R. E. Hill,
    R. A. Kowalski, S. M. Larson, R. H. McNaught.  0.68-m Schmidt + CCD.

Orbital elements:
2007 LL                                                  Earth MOID = 0.0754 AU
Epoch 2007 Apr. 10.0 TT = JDT 2454200.5                 MPC
M  88.13447              (2000.0)            P               Q
n   0.96254884     Peri.  211.53408     -0.14625982     -0.97781119
a   1.0159076      Node   247.24825     +0.93808844     -0.08896993
e   0.1216951      Incl.    9.35972     +0.31400341     -0.18965663
P   1.02           H   19.8           G   0.15           U   9
Residuals in seconds of arc
070608 703  0.0   0.2-    070608 703  0.2-  0.4+    070608 246  0.1+  0.0
070608 703  0.1+  0.2+    070608 703  0.2+  0.0     070608 246  0.0   0.0
070608 703  0.1+  0.2-    070608 461  0.2+  0.3-    070608 246  0.1+  0.0
070608 703  0.8-  0.2-    070608 461  0.1+  0.3-    070608 246  0.3-  0.2+
070608 703  0.0   0.2+    070608 461  0.1+  0.3-    070608 246  0.1+  0.2+
070608 703  0.5+  0.1-    070608 246  0.1-  0.3+    070608 246  0.3-  0.1+

Ephemeris:
2007 LL                  a,e,i = 1.02, 0.12, 9                   q = 0.8923
Date    TT    R. A. (2000) Decl.     Delta      r     Elong.  Phase     V
2007 06 09    13 49.58   -05 52.2    0.158    1.122   129.6    44.1    17.7
2007 06 14    13 59.14   -02 54.0    0.175    1.127   125.8    47.0    18.0
2007 06 19    14 08.60   -00 40.7    0.193    1.131   122.2    49.5    18.3
2007 06 24    14 18.06   +00 57.1    0.211    1.134   118.9    51.7    18.6
2007 06 29    14 27.54   +02 06.8    0.230    1.136   115.9    53.6    18.8
2007 07 04    14 37.06   +02 54.4    0.249    1.138   113.2    55.2    19.1
2007 07 09    14 46.65   +03 24.3    0.268    1.139   110.6    56.7    19.3
2007 07 14    14 56.37   +03 39.8    0.287    1.139   108.2    57.9    19.5
2007 07 19    15 06.26   +03 43.7    0.306    1.139   106.0    59.1    19.6
2007 07 24    15 16.35   +03 38.4    0.324    1.138   103.9    60.0    19.8
2007 07 29    15 26.62   +03 26.0    0.342    1.137   101.9    60.9    19.9
2007 08 03    15 37.07   +03 08.0    0.359    1.134   100.1    61.8    20.1
2007 08 08    15 47.72   +02 45.2    0.376    1.131    98.3    62.5    20.2
2007 08 13    15 58.60   +02 18.8    0.391    1.127    96.6    63.2    20.3
2007 08 18    16 09.74   +01 49.6    0.406    1.123    95.0    63.9    20.4
2007 08 23    16 21.14   +01 18.5    0.420    1.118    93.4    64.5    20.4
2007 08 28    16 32.79   +00 46.3    0.433    1.113    91.9    65.2    20.5

Timothy B. Spahr             (C) Copyright 2007 MPC           M.P.E.C. 2007-L33

Read MPEC 2007-L32 Read MPEC 2007-L34


Our Web policy. Index to the CBAT/MPC/ICQ pages.


Valid HTML 4.01!